Regional Weather Roundup
Issued by NWS Jackson, KY

Home | Current Version | Previous Version | Graphics & Text | Print | Product List | Glossary On
Versions: 1 2 3 4 5 6 7 8 9 10 11 12 13 14 15 16 17 18 19 20 21 22 23 24 25 26 27 28 29 30 31 32 33 34 35 36 37 38 39 40 41 42 43 44 45 46 47 48 49 50
508
ASUS43 KJKL 191510
RWRJKL

EAST KENTUCKY HOURLY WEATHER ROUNDUP
NATIONAL WEATHER SERVICE JACKSON KY
1000 AM EST SUN NOV 19 2017

NOTE: "FAIR" INDICATES FEW OR NO CLOUDS BELOW 12,000 FEET WITH
NO SIGNIFICANT WEATHER AND/OR OBSTRUCTIONS TO VISIBILITY.

* THESE REPORTS ARE NOT UNDER NWS QUALITY CONTROL AND MAY NOT
  REPORT WEATHER SUCH AS PRECIPITATION AND FOG.

KYZ079-080-083-085-087-088-110-112-115-119-120-191600
...EASTERN KENTUCKY...

CITY           SKY/WX    TMP DP  RH WIND       PRES   REMARKS
JACKSON        CLOUDY    38  31  76 W8        30.01R WCI  32
LONDON         CLOUDY    39  29  67 NW8G18    30.05R WCI  33
SOMERSET*      CLOUDY    37  30  75 W8        30.08R WCI  31
MONTICELLO*    CLOUDY    41  33  73 W12       30.09R
WILLIAMSBURG*  CLOUDY    37  34  87 CALM      30.06R
MIDDLESBORO*   CLOUDY    39  32  75 NW6       30.05R
HARLAN APT*    CLOUDY    37  30  75 SW8       30.03R WCI  31
PIKE CO APT*   CLOUDY    36  33  87 W9        29.99R WCI  29
BIG SANDY APT* CLOUDY    39  31  72 W10       30.00R WCI  32
MOREHEAD APT*  CLOUDY    39  30  70 NW9G16    30.02R WCI  33
$$

KYZ035-036-041-042-044-050-067-078-099-191600
...CENTRAL KENTUCKY...

CITY           SKY/WX    TMP DP  RH WIND       PRES   REMARKS
MT STERLING*   CLOUDY    37  32  81 W5        30.04R WCI  34
FLEMING/MASON* CLOUDY    38  31  76 W13       30.01R WCI  30
DANVILLE*      CLOUDY    37  32  81 W8G21     30.06R WCI  31
LEXINGTON      CLOUDY    40  32  73 W9        30.03R WCI  34
FRANKFORT      CLOUDY    39  29  67 NW8       30.03R WCI  33
LOUISVILLE     CLOUDY    39  30  70 W16       30.07R WCI  30
LEBANON*       CLOUDY    39  32  75 W10       30.07R WCI  32
GLASGOW*       CLOUDY    38  32  79 W10       30.11R WCI  30
BOWLING GREEN  CLOUDY    39  30  70 W9        30.13R WCI  33
$$

KYZ091>093-OHZ055-061-077-WVZ005-015-034-035-042-191600
...SOUTHERN OHIO/WEST VIRGINIA...

CITY           SKY/WX    TMP DP  RH WIND       PRES   REMARKS
COVINGTON      CLOUDY    38  32  79 W15G21    30.00R WCI  29
COLUMBUS       CLOUDY    39  34  82 W15       29.90R WCI  31
DAYTON         CLOUDY    37  33  85 W13       29.95R WCI  29
WILMINGTON     CLOUDY    38  31  76 W13       29.95R WCI  30
HUNTINGTON     CLOUDY    40  28  62 W12G17    29.97R WCI  33
CHARLESTON     CLOUDY    41  30  65 W12G26    29.94R
PINEVILLE*     CLOUDY    38  31  77 MISG      29.98R
BECKLEY        FLURRIES  34  32  92 W7        29.88R WCI  28
BLUEFIELD      FLURRIES  32  29  88 W16G24    29.88R WCI  21
LOGAN CO APT*  CLOUDY    37  30  75 W9        29.95R WCI  31
$$

VAZ002-007-008-TNZ017-027-036-066-071-191600
...SOUTHWEST VIRGINIA/EAST TENNESSEE...

CITY           SKY/WX    TMP DP  RH WIND       PRES   REMARKS
WISE*          LGT SNOW  34  34 100 W5        29.96R WCI  30
JONESVILLE*    CLOUDY    39  30  70 NW9       30.04R WCI  33
ABINGDON*      LGT SNOW  37  33  87 NW9G18    29.96R WCI  30
BRISTOL        CLOUDY    41  34  76 W12       29.99R
MORRISTOWN*    CLOUDY    41  30  65 NW12G20   30.02R
SEVIERVILLE*   CLOUDY    43  30  61 W7G13     30.05R
KNOXVILLE      CLOUDY    43  36  76 SW5       30.04R
OAK RIDGE      CLOUDY    44  35  70 VRB3      30.07R
CROSSVILLE     CLOUDY    37  29  72 NW10      30.05R WCI  30
NASHVILLE      CLOUDY    41  28  60 NW10G20   30.15R
$$

...KEY TO REMARKS...
VSB - VISIBILITY IN MILES
WCI - WIND CHILL INDEX
HX  - HEAT INDEX

$$




USA.gov is the U.S. government's official web portal to all federal, state and local government web resources and services.